Regional Weather Roundup
Issued by NWS

Home | Current Version | Previous Version | Text Only | Print | Product List | Glossary Off
Versions: 1 2 3 4 5 6 7 8 9 10 11 12 13 14 15 16 17 18 19 20 21 22 23 24 25 26 27 28 29 30 31 32 33 34 35 36 37 38 39 40 41 42 43 44 45 46 47 48 49 50

000
ASUS43 KFSD 221902
RWRSD

WEATHER ROUNDUP FOR SOUTH DAKOTA
NATIONAL WEATHER SERVICE SIOUX FALLS SD
200 PM CDT MON SEP 22 2014

NOTE: "FAIR" INDICATES FEW OR NO CLOUDS BELOW 12,000 FEET WITH NO
SIGNIFICANT WEATHER AND/OR OBSTRUCTIONS TO VISIBILITY.


SDZ001>005-009-010-012>017-222000-
NORTHWEST AND NORTH CENTRAL SOUTH DAKOTA

CITY           SKY/WX    TMP DP  RH WIND       PRES   REMARKS
FAITH            N/A     74  48  39 SE20G26   29.97F
MOBRIDGE       PTSUNNY  N/A N/A N/A SE17G24   30.02F
$$

SDZ012>016-024>037-041>051-057-063-072>074-222000-
SOUTHWEST AND SOUTH CENTRAL SOUTH DAKOTA

CITY           SKY/WX    TMP DP  RH WIND       PRES   REMARKS
RAPID CTY ARPT MOSUNNY   75  47  36 S22G29    29.98F
PIERRE         MOSUNNY   80  46  30 S24G31    30.03F
CUSTER         PTSUNNY   67  44  43 SW9       30.10F
PHILIP         PTSUNNY   80  48  32 S23G30    29.99F
PINE RIDGE     CLOUDY    70  48  45 S23G30    30.05F
WINNER         CLOUDY    77  46  33 S22G30    30.11F
$$

SDZ004>011-016>023-039-040-222000-
NORTHEAST SOUTH DAKOTA

CITY           SKY/WX    TMP DP  RH WIND       PRES   REMARKS
ABERDEEN       SUNNY     76  46  34 S12G21    30.12F
WATERTOWN      SUNNY     72  46  39 S12G20    30.17F
SISSETON         N/A     74  46  36 MISG      30.14F
$$

SDZ017-020-022-023-036>040-048>070-222000-
SOUTHEAST SOUTH DAKOTA

CITY           SKY/WX    TMP DP  RH WIND       PRES   REMARKS
SIOUX FALLS    PTSUNNY   71  47  42 S13       30.22F
HURON          PTSUNNY   74  46  36 S14       30.14F
CHAMBERLAIN    MOSUNNY   76  49  39 S14G23    30.12F
MITCHELL       MOSUNNY   74  47  38 S16       30.18F
YANKTON        MOSUNNY   72  46  40 S14       30.21F
$$

ABBREVIATIONS USED IN REMARKS
   TC - TEMPERATURE IN CELSIUS
  WCI - WIND CHILL INDEX
   HX - HEAT INDEX
  VSB - VISIBILITY



USA.gov is the U.S. government's official web portal to all federal, state and local government web resources and services.